{"data":{"norad_id":68939,"intl_designator":"2026-098W","name":"KUIPER-00436","alt_names":[],"object_type":"PAYLOAD","status":"ACTIVE","operator":null,"country":"US","launch_date":"2026-04-30","launch_site_code":"FRGUI","launch_vehicle":null,"mission":null,"orbit_class":"UNKNOWN","rcs_meters":null,"size_class":null,"mass_kg":null,"dimensions":null,"purposes":[],"wikipedia_slug":null,"has_3d_model":false,"image_url":null,"decayed_at":null,"tle_current":{"epoch":"2026-09-19T07:46:25.959648Z","epoch_age_seconds":121023,"freshness":"FRESH","line1":"1 68939U 26098W   26262.32391157  .00002053  00000+0  29830-3 0  9993","line2":"2 68939  51.9003   1.8872 0000502  95.5693 264.5327 14.79927705 21424","mean_motion":14.79927705,"eccentricity":5.02e-5,"inclination_deg":51.9003,"raan_deg":1.8872,"arg_perigee_deg":95.5693,"mean_anomaly_deg":264.5327,"bstar":0.0002983,"rev_number":2142,"period_min":97.302050305221,"perigee_km":629.20055822265,"apogee_km":629.90413023281,"semimajor_km":7007.6893442277,"source":"CELESTRAK","updated_at":"2026-09-20T09:00:24.581958Z"}}}